If you wish to contribute or participate in the discussions about articles you are invited to join SKYbrary as a registered user

 Actions

Amman/Queen Alia International

From SKYbrary Wiki

OJAI
Airport
ICAO: OJAI
Summary
Name Amman/Queen Alia International
Region Middle East
Territory Jordan JO.gif
Location Amman/Queen International, Jordan
Serving
Coordinates 31° 43' 24.00" N, 35° 59' 36.00" E
Runways
Designator Length Width Surface ROPS
08L/26R 3660 m12,007.874 ft <br /> 61 m200.131 ft <br /> ASP yes/yes
08R/26L 3660 m12,007.874 ft <br /> 61 m200.131 ft <br /> CON yes/yes


METAR
Observation OJAI 180900Z 30010KT 6000 NSC 26/10 Q1016 NOSIG
Station Queen Alia Airport
Date/Time 18 June 2021 09:00:00
Wind direction 300°
Wind speed 10 kts
Lowest cloud amount nil significant cloud
Temperature 26°C
Dew point 10°C
Humidity 36%
QNH 1016 hPa
Weather condition n/a


Amman/Queen Alia International Airport

ICAO: OJAI IATA: AMM

Description

Principal international airport serving Amman.

Climatology

Dry-summer subtropical ”Mediterranean" climate (Köppen climate classification Csa) - characterized by hot, dry summers and mild winters. During the summer, subtropical high pressure cells dominate, making rainfall unlikely except for the occasional thunderstorm. In the winter, periodic storms bring rain.

Maps

Terrain

Loading map...

Airport Layout

Loading map...


Accidents & Serious Incidents at or in vicinity of OJAI

None on SKYbrary